Location: Peterborough
(44.3091°N, 78.3197°W)
Time: 19:36:15
(UTC-04:00)

Vanguard 3 - Pass Details

Date: 30 March 2023
Orbit: 507 x 3246 km, 33.4° (Epoch: 06 June)

Event Time Altitude Azimuth Distance (km) Brightness Sun altitude
Exits shadow 04:52:08 28° 241° (WSW) 4,678 10.3 -22.3°
Maximum altitude 05:04:10 59° 177° (S) 3,561 10.1 -20.4°
Drops below altitude 10° 05:21:29 10° 104° (ESE) 5,465 12.1 -17.6°
Sets 05:25:13 0° 101° (E) 6,201 12.6 -16.9°
